Location: Dehesa de la Cepeda
(40.6574°N, 4.3013°W)
Time: 10:25:49
(UTC+00:00)

Transit 2A Rocket - Pass Details

Date: 13 August 2021
Orbit: 586 x 917 km, 66.7° (Epoch: 24 September)

Event Time Altitude Azimuth Distance (km) Brightness Sun altitude
Rises 10:23:11 0° 179° (S) 2,832 8.3 53.2°
Reaches altitude 10° 10:25:36 10° 167° (SSE) 1,962 7.7 53.6°
Maximum altitude 10:29:20 27° 109° (ESE) 1,216 7.3 54.2°
Drops below altitude 10° 10:33:19 10° 51° (NE) 2,108 7.5 54.7°
Sets 10:36:00 0° 40° (NE) 3,087 8.1 55.1°
